Location: Caltech
(34.1382°N, 118.1253°W)
Time: 00:41:38
(UTC-08:00)

Iridium 3 - Visible Passes

Search period start: 01 February 2015 00:00
Search period end: 11 February 2015 00:00
Orbit: 776 x 779 km, 86.4° (Epoch: 31 January)

Date Brightness Start Highest point End Pass type
(mag) Time Alt. Az. Time Alt. Az. Time Alt. Az.
04 Feb 8.1 20:09:58 10° NNW 20:09:59 10° NNW 20:09:59 10° NNW visible
05 Feb 7.2 19:36:15 10° N 19:48:57 - S 19:37:58 21° N visible
06 Feb 5.9 19:02:57 10° NNE 19:12:42 11° SSE 19:12:54 10° SSE visible
06 Feb 8.1 20:44:59 10° NW 20:52:51 - SW 20:47:45 16° WNW visible
07 Feb 6.5 18:30:07 10° NNE 18:34:11 23° E 18:38:21 10° SE visible
07 Feb 7.1 20:10:22 10° NNW 20:14:58 32° W 20:19:30 10° SSW visible
08 Feb 7.2 17:58:32 10° NE 18:00:15 12° ENE 18:02:20 10° E visible
08 Feb 5.9 19:36:24 10° N 19:41:34 62° W 19:46:41 10° SSW visible
09 Feb 5.4 19:02:51 10° N 19:08:03 67° E 19:13:14 10° S visible
09 Feb 8.6 20:46:51 10° WNW 20:48:15 11° W 20:49:16 10° W visible
10 Feb 8.5 06:17:48 10° ESE 06:20:23 14° E 06:23:16 10° NE visible
10 Feb 6.1 18:29:42 10° NNE 18:34:24 34° E 18:39:09 10° SSE visible
10 Feb 7.8 20:10:59 10° NW 20:14:57 22° W 20:18:45 10° SW visible
